Regional Weather Roundup
Issued by NWS

Home | Current Version | Previous Version | Graphics & Text | Print | Product List | Glossary On
Versions: 1 2 3 4 5 6 7 8 9 10 11 12 13 14 15 16 17 18 19 20 21 22 23 24 25 26 27 28 29 30 31 32 33 34 35 36 37 38 39 40 41 42 43 44 45 46 47 48 49 50
000
ASUS45 KSLC 112310
RWRUT

UTAH REGIONAL WEATHER ROUNDUP
NATIONAL WEATHER SERVICE SALT LAKE CITY UT
500 PM MDT FRI JUL 11 2014

UTZ001>011-023>025-120000-

NORTHERN UTAH

CITY           SKY/WX    TMP DP  RH WIND       PRES   REMARKS
HILL AFB       MOSUNNY   82  58  43 E10G21    30.10F
LOGAN          SUNNY     80  54  40 SE10G20   30.10S
OGDEN          MOSUNNY   81  59  47 N9        30.07F
PROVO AIRPORT  PTSUNNY   81  55  41 W7        30.09F
SALT LAKE CITY PTSUNNY   85  50  29 S7        30.04F
VERNAL         MOSUNNY   88  50  27 S5        30.05F
WENDOVER       MOSUNNY   91  48  22 E13G20    30.03S
HEBER CITY     PTSUNNY   79  54  41 N14       30.16F
WEST JORDAN    PTSUNNY   82  59  44 CALM      30.09F

$$

UTZ012>022-026-027-120000-

SOUTHERN UTAH

CITY           SKY/WX    TMP DP  RH WIND       PRES   REMARKS
BRYCE CANYON   CLOUDY    69  52  54 E8        30.30S
CEDAR CITY     MOSUNNY   85  47  26 W12       30.14F
MILFORD        MOSUNNY   89  49  25 MISG      30.09S
MOAB/CYNLANDS  SUNNY     94  43  17 W8G16     29.98F HX  90
PRICE          CLOUDY    78  50  37 W10       30.14S
ST GEORGE      NOT AVBL

$$

REGIONAL REPORTS     COLORADO/ARIZONA

CITY           SKY/WX    TMP DP  RH WIND       PRES   REMARKS
CRAIG, CO      MOSUNNY   77  54  44 VRB3      30.15F
GRAND JUNCTION MOSUNNY   91  50  24 VRB7      30.01F THUNDER
RIFLE          PTSUNNY   84  58  40 E8        30.06F THUNDER
MONTROSE       MOSUNNY   88  46  23 SE18      30.12F
CORTEZ         SUNNY     88  43  20 W12G20    30.12F
PAGE, AZ       SUNNY     95  45  17 VRB7G17   30.01F HX  91
GRAND CANYON   MOSUNNY   83  42  23 W13       30.23F
KINGMAN        MOSUNNY   94  44  17 S18G25    30.01F HX  90
FLAGSTAFF      PTSUNNY   78  45  30 S14       30.26F

$$

REGIONAL REPORTS    NEVADA/IDAHO/WYOMING

CITY           SKY/WX    TMP DP  RH WIND       PRES   REMARKS
LAS VEGAS, NV  MOSUNNY  100  39  12 S17G24    29.85F HX  95
ELY            PTSUNNY   80  48  32 SE17      30.20R
ELKO           PTSUNNY   87  43  21 SE12      30.05F
POCATELLO, ID  SUNNY     84  46  26 S15       30.04R
BURLEY         MOSUNNY   91  50  24 S9        29.98S
EVANSTON, WY   CLOUDY    68  56  65 E7        30.28F
ROCK SPRINGS   PTSUNNY   77  49  37 N9        30.22F

$$



USA.gov is the U.S. government's official web portal to all federal, state and local government web resources and services.